Temperature
21 21 21 21 21 20 20 20 20 19 19 19 18 18 18 18 18 18 18 17 17 17 17 17 17 17 17 17 17 17 17 17 17 17 17 17 17 17 17 17 17 17 17
21 21 21 21 21 21 20 20 20 19 19 19 19 18 18 18 18 18 17 17 17 17 17 17 17 17 17 17 17 17 17 17 17 17 17 17 17 17 17 17 17 17 17
21 21 21 21 21 21 21 20 20 19 19 19 18 18 18 18 18 18 17 17 17 17 17 17 17 17 17 17 17 17 17 17 17 17 17 17 17 16 17 17 17 17 17
21 21 21 21 21 21 21 20 20 20 19 19 18 18 18 18 18 18 17 17 17 17 17 17 17 17 17 17 17 17 17 17 17 17 17 17 17 16 16 16 17 17 17
22 22 22 22 22 21 21 20 20 20 19 19 19 18 18 18 18 17 17 17 17 17 17 17 17 17 17 17 17 17 17 17 17 17 17 17 16 16 16 16 16 17 17
22 22 22 22 22 21 21 20 20 20 19 19 19 18 18 18 18 17 17 17 17 17 17 17 17 17 17 17 17 17 17 17 16 16 16 16 16 16 16 16 16 16 16
22 22 22 22 22 21 21 21 20 20 20 19 19 18 18 18 18 17 17 17 17 17 17 17 17 17 17 17 16 16 16 16 16 16 16 16 16 16 16 16 16 16 16
22 22 22 22 22 22 21 21 21 20 20 19 19 18 18 18 18 17 17 17 17 17 17 17 17 16 16 16 16 16 16 16 16 16 16 16 16 16 16 16 16 15 15
22 22 22 22 22 22 21 21 21 20 20 19 19 19 18 18 18 17 17 17 17 17 17 17 16 16 16 16 16 16 16 16 16 16 16 16 16 16 16 16 16 15 15
22 22 22 22 22 21 21 21 20 20 20 19 19 18 18 18 18 17 17 17 17 16 16 16 16 16 16 16 16 16 16 16 16 16 16 15 15 15 16 16 15 15 15
21 21 21 21 21 21 21 20 20 20 19 19 19 18 18 18 18 17 17 17 17 16 16 16 16 16 16 16 16 16 16 16 15 15 15 15 15 15 15 15 15 15 15
21 21 21 21 21 20 20 20 20 20 19 19 19 18 18 18 18 17 17 17 16 16 16 16 16 16 16 16 16 16 15 15 15 15 15 15 15 15 15 15 15 15 15
21 21 20 20 20 20 20 20 19 19 19 19 18 18 18 18 17 17 17 16 16 16 16 16 16 16 16 16 16 15 15 15 15 15 15 15 15 15 15 15 15 14 14
20 20 20 20 20 20 20 19 19 19 19 19 18 18 18 18 17 17 17 16 16 16 16 16 16 16 15 15 15 15 15 15 15 15 15 15 15 15 14 14 14 14 14
20 20 20 20 20 20 19 19 19 19 18 18 18 18 18 17 17 17 17 16 16 16 16 16 15 15 15 15 15 15 15 15 15 15 15 14 14 14 14 14 14 14 14
20 20 20 20 20 19 19 19 19 18 18 18 18 18 17 17 17 17 16 16 16 16 16 15 15 15 15 15 15 15 15 15 15 14 14 14 14 14 14 14 14 13 13
20 20 20 20 20 19 19 19 19 18 18 18 18 17 17 17 16 16 16 16 16 16 15 15 15 15 15 15 15 14 14 14 14 14 14 14 14 14 14 14 14 13 13
20 20 20 20 19 19 19 19 18 18 18 17 17 17 17 16 16 16 16 16 16 15 15 15 15 15 15 15 14 14 14 14 14 14 14 14 14 14 13 13 13 13 13
20 20 20 19 19 19 18 18 18 18 17 17 17 17 17 16 16 16 16 16 15 15 15 15 15 15 15 14 14 14 14 14 14 14 14 14 14 13 13 13 13 13 13
20 20 19 19 19 18 18 18 17 17 17 17 17 16 16 16 16 16 16 15 15 15 15 15 14 14 14 14 14 14 14 14 14 13 13 13 13 13 13 13 13 13 13
20 19 19 19 18 18 17 17 17 17 16 16 16 16 16 15 15 15 15 15 15 15 15 15 14 14 14 14 14 13 13 13 13 13 13 13 13 13 12 12 12 12 12
19 19 19 18 18 17 17 17 17 17 16 16 16 16 15 15 15 15 15 15 15 14 14 14 14 14 14 14 13 13 13 13 13 13 13 13 12 12 12 12 12 12 12
19 19 18 18 18 17 17 17 16 16 16 16 15 15 15 15 15 14 14 14 14 14 14 14 14 14 14 13 13 13 13 13 13 13 12 12 12 12 12 12 12 12 12
18 18 18 18 17 17 17 16 16 16 16 16 15 15 15 14 14 14 14 14 14 14 14 13 13 13 13 13 13 13 13 13 12 12 12 12 12 12 12 12 12 12 12
17 17 17 17 17 17 16 16 16 16 15 15 15 15 14 14 14 14 14 13 13 13 13 13 13 13 13 13 13 13 13 12 12 12 12 12 12 12 12 12 12 12 12
17 17 17 17 16 16 16 16 15 15 15 15 15 14 14 14 14 14 13 13 13 13 13 13 13 13 13 13 13 13 13 12 12 12 12 12 12 12 12 12 12 12 11
Wind_Speed
7 7 7 7 7 6 5 5 5 4 4 3 2 2 1 0 0 1 1 2 2 3 3 2 1 2 1 1 1 1 2 2 2 2 2 2 2 2 1 1 1 0 0
7 7 7 7 8 8 7 6 6 6 5 3 3 2 2 1 1 0 0 1 2 3 3 2 2 2 2 1 1 1 1 1 2 2 1 2 3 3 2 1 1 1 1
11 9 9 8 8 8 8 8 7 6 5 5 3 3 2 2 1 1 0 0 1 2 2 3 2 2 2 1 1 1 2 1 1 1 2 2 1 1 2 2 1 1 0
9 9 9 9 9 9 8 7 7 7 6 6 5 5 4 3 2 1 1 0 1 1 2 2 2 2 2 2 1 1 1 2 1 0 0 1 2 1 1 2 2 1 0
9 10 11 11 9 8 8 7 7 6 6 6 6 5 4 3 1 1 1 0 0 0 1 2 2 2 1 2 1 1 1 2 2 1 1 1 1 1 1 2 2 2 1
9 9 8 8 7 7 7 7 7 6 6 6 6 6 6 5 3 2 1 0 0 0 0 1 2 2 2 2 2 2 2 2 2 1 1 2 1 2 2 2 2 2 2
8 8 8 8 8 8 8 8 8 7 6 6 6 7 7 6 6 4 3 2 1 1 2 1 1 2 2 2 2 2 2 2 2 2 2 2 2 2 2 2 1 1 2
7 7 8 9 9 9 8 8 8 7 7 7 6 6 6 5 4 4 4 3 3 3 2 2 2 2 2 3 2 2 2 2 2 3 2 2 2 2 2 3 2 1 2
7 7 7 7 7 8 8 8 8 7 7 7 6 5 5 5 5 4 3 3 3 3 2 2 2 2 3 3 2 2 2 2 2 2 2 2 2 2 2 3 3 3 3
4 4 4 5 5 6 6 6 6 7 6 6 6 6 5 5 5 4 4 3 3 3 2 2 3 3 3 3 3 3 2 2 2 2 1 1 2 2 2 3 3 3 3
5 5 4 4 5 4 5 5 5 5 5 5 5 5 5 4 4 4 4 4 4 4 3 3 3 3 3 3 3 3 3 3 2 2 2 3 2 2 2 2 2 2 3
5 5 5 4 4 4 4 5 5 6 5 5 5 5 4 4 4 4 4 4 4 4 4 3 3 3 4 3 3 4 3 3 3 3 3 4 3 3 2 2 3 3 3
5 4 4 4 4 4 3 3 4 5 4 5 5 5 4 4 4 4 4 4 4 3 3 3 3 3 3 3 3 4 4 4 4 4 4 4 3 3 2 3 3 3 3
4 5 4 4 4 4 4 3 3 4 4 4 5 5 5 5 5 4 4 4 4 3 3 3 3 3 3 2 2 3 3 3 4 4 4 4 4 4 4 3 3 2 2
4 5 5 4 3 3 3 3 3 3 4 5 5 5 4 4 3 3 3 3 3 4 3 2 3 3 3 3 3 3 3 3 3 3 3 4 4 5 4 3 3 3 2
5 5 5 5 5 4 4 3 4 4 4 4 5 4 3 3 3 3 3 3 3 3 2 3 3 3 3 3 4 3 3 3 3 4 4 4 3 4 4 4 4 4 4
6 6 6 6 6 5 5 5 5 4 4 4 3 3 3 3 4 4 3 3 3 3 3 3 3 4 4 4 4 4 3 3 4 4 4 3 3 3 2 3 3 3 4
5 5 5 5 4 4 3 3 4 4 4 4 3 3 3 4 3 2 3 3 3 3 3 3 4 4 4 4 4 3 3 3 4 4 4 4 3 3 2 2 2 3 4
4 4 4 4 4 4 3 3 3 3 3 3 3 3 3 3 3 3 4 3 3 3 3 2 3 3 4 4 3 2 2 3 4 4 4 4 4 4 3 2 3 3 4
2 3 3 3 3 3 4 4 3 2 3 4 3 2 3 3 4 4 4 2 2 3 2 2 2 3 4 4 4 2 2 3 3 3 3 4 4 4 3 3 3 4 5
2 3 3 3 4 4 5 4 3 4 4 3 2 1 2 4 4 3 2 2 2 2 2 2 3 3 4 4 4 4 3 3 3 3 3 3 4 4 4 4 4 6 5
3 4 4 3 3 4 6 5 4 4 2 2 1 1 2 3 2 2 2 2 2 2 2 2 3 3 3 4 4 5 5 5 4 4 4 4 4 5 5 4 5 5 3
4 4 4 3 2 4 6 6 5 4 3 3 2 2 2 2 1 2 3 2 2 2 3 3 3 4 3 3 5 6 6 6 4 4 5 5 5 5 4 5 4 3 2
3 3 3 3 3 3 5 5 4 4 4 4 3 2 2 2 2 2 3 3 3 4 4 4 5 4 4 4 3 3 3 4 4 3 3 3 3 3 3 3 3 3 3
3 3 4 5 5 4 4 3 3 3 4 3 3 2 3 3 3 2 3 4 5 5 5 5 5 5 6 6 6 4 4 4 4 2 2 2 2 2 2 2 2 3 3
3 3 4 4 4 4 4 4 3 4 4 3 3 3 3 3 3 3 2 4 5 5 7 7 7 6 7 7 6 7 6 5 5 3 3 4 4 4 4 4 3 3 3
Wind_Direction
199 185 182 178 171 171 167 169 169 171 156 140 141 141 163 186 90 213 207 186 173 163 152 141 120 108 108 100 78 84 74 50 60 68 34 18 30 39 25 63 67 29 305
190 189 187 180 181 182 179 176 180 178 172 167 157 145 141 147 161 282 114 187 180 174 167 156 151 139 121 89 70 89 92 62 67 97 80 15 0 14 23 32 51 360 15
199 195 191 190 187 187 188 190 187 181 175 160 129 105 86 66 65 47 9 271 172 162 161 162 158 153 145 155 176 142 142 147 72 88 129 136 232 330 355 13 26 29 54
200 195 191 192 193 194 189 186 181 180 176 161 153 150 159 174 203 195 196 37 146 175 174 163 158 158 157 170 203 166 161 154 164 135 85 138 154 161 323 340 358 4 345
197 195 194 194 194 188 183 178 175 179 175 169 171 164 167 178 165 127 107 77 19 51 169 163 154 163 176 191 188 158 151 158 164 173 159 114 79 135 179 279 319 341 319
195 194 192 188 187 180 176 172 173 185 181 175 175 173 174 169 157 166 177 220 249 356 95 157 158 169 188 205 204 190 174 174 164 177 169 166 166 187 177 225 275 292 296
188 188 184 182 185 182 181 178 177 187 184 178 183 185 183 177 182 190 194 195 210 235 241 205 191 198 211 213 201 190 194 187 186 208 215 209 211 186 175 185 233 274 302
184 188 187 187 190 188 184 182 182 187 182 181 190 192 185 187 198 196 190 195 212 228 233 213 210 215 208 217 203 202 214 196 210 225 216 218 224 201 193 185 183 254 291
186 186 182 185 187 188 186 183 181 185 184 184 184 189 190 192 198 196 193 200 216 230 225 224 224 222 212 211 196 211 222 200 212 227 229 232 234 209 206 198 193 195 250
178 174 172 177 175 180 179 169 174 182 184 182 187 195 199 201 196 184 196 208 227 240 228 239 239 236 228 219 207 220 223 210 230 228 223 238 242 225 208 205 206 206 213
175 171 164 165 159 157 164 170 178 180 183 186 187 190 193 191 187 194 207 213 221 222 223 233 239 245 240 229 215 225 223 221 237 239 224 242 244 236 224 206 205 212 209
167 167 154 146 147 162 171 175 180 185 193 192 191 197 198 186 189 201 209 209 219 223 224 230 234 247 248 233 221 228 225 218 231 237 233 243 241 238 232 211 215 220 219
146 142 138 149 155 163 166 174 188 193 189 180 187 196 203 201 202 206 210 210 217 223 221 217 232 248 250 235 225 218 216 217 223 225 228 237 230 244 241 225 223 226 232
148 143 150 159 161 167 166 162 180 184 176 171 182 198 208 208 210 209 212 216 215 218 225 226 241 247 246 237 228 221 222 227 235 235 234 237 228 232 234 234 228 222 228
155 162 168 173 166 159 164 167 171 169 170 169 183 207 214 207 202 207 215 216 212 220 222 229 249 256 248 243 231 222 228 230 247 254 249 245 235 229 228 237 224 211 217
179 175 173 169 174 177 176 170 174 181 167 174 196 205 198 201 209 209 210 212 217 222 216 233 245 256 261 257 234 214 227 229 238 251 256 252 247 244 242 246 236 211 207
187 182 184 185 186 188 182 180 183 176 168 178 193 196 196 204 217 214 205 214 220 221 230 236 235 250 257 255 245 220 215 232 238 239 243 250 254 248 239 250 252 242 229
189 187 185 185 186 181 175 174 166 166 174 181 189 198 200 212 216 212 222 226 221 222 226 229 234 249 264 265 250 233 222 239 248 244 229 231 251 243 223 227 249 260 255
195 188 187 185 175 170 165 149 157 166 176 195 205 212 206 207 208 217 230 227 217 226 222 222 227 241 269 277 259 224 220 241 256 254 235 224 230 230 215 223 251 270 276
166 160 151 147 153 161 147 139 150 162 205 221 221 220 206 207 216 222 222 216 210 221 224 237 237 239 258 269 258 221 214 241 259 261 247 228 226 227 217 219 228 249 265
141 141 141 161 176 164 152 158 171 207 228 231 228 233 225 217 216 216 213 216 214 220 233 248 260 256 261 264 249 227 212 226 245 258 262 255 239 237 238 227 228 239 250
156 156 157 176 179 166 163 176 208 222 213 195 217 240 237 232 222 208 223 216 204 217 237 250 277 277 268 258 248 233 226 220 225 246 253 258 254 248 249 244 238 234 233
176 170 165 170 183 178 173 189 219 211 177 167 205 237 234 222 205 206 219 223 215 224 241 241 257 272 273 264 252 242 238 232 233 247 250 259 262 260 254 244 237 217 212
185 177 169 178 201 206 201 205 206 190 178 188 206 214 213 224 220 219 218 213 220 228 237 242 250 259 262 260 254 249 244 241 244 257 269 274 265 252 249 251 242 225 216
194 187 193 201 214 215 220 219 200 182 192 203 208 212 212 214 218 228 233 233 235 224 226 238 239 242 255 251 235 232 241 239 237 236 266 280 282 267 258 254 250 234 213
203 205 207 210 219 211 216 219 203 189 190 205 213 218 218 219 217 226 265 259 242 246 240 235 234 242 243 253 243 236 233 226 204 197 238 251 253 251 252 249 253 250 236
Height
1508 1510 1512 1514 1516 1518 1520 1521 1523 1524 1525 1526 1527 1528 1529 1530 1530 1531 1532 1532 1533 1534 1534 1535 1535 1536 1536 1536 1537 1537 1537 1537 1537 1537 1536 1537 1537 1537 1537 1537 1538 1539 1539
1506 1508 1510 1512 1514 1516 1518 1520 1521 1523 1524 1525 1526 1527 1528 1529 1530 1531 1531 1532 1533 1533 1534 1534 1535 1535 1536 1536 1536 1536 1536 1536 1537 1537 1536 1536 1538 1536 1537 1537 1537 1538 1538
1503 1505 1507 1509 1511 1513 1516 1518 1520 1521 1523 1524 1526 1527 1527 1528 1529 1530 1531 1531 1532 1533 1533 1534 1534 1535 1535 1535 1535 1536 1536 1536 1536 1536 1537 1537 1536 1536 1537 1537 1537 1537 1537
1500 1502 1504 1507 1509 1511 1514 1516 1518 1520 1521 1523 1524 1525 1526 1527 1528 1529 1530 1531 1532 1532 1533 1534 1534 1534 1534 1534 1535 1535 1535 1535 1535 1536 1536 1537 1536 1536 1536 1536 1536 1536 1537
1497 1499 1501 1504 1507 1509 1511 1514 1516 1518 1520 1521 1522 1524 1525 1526 1528 1528 1529 1530 1531 1532 1532 1533 1533 1533 1534 1534 1534 1534 1534 1534 1535 1535 1535 1535 1536 1536 1535 1535 1535 1535 1535
1494 1496 1499 1502 1505 1507 1509 1512 1514 1516 1517 1519 1521 1522 1523 1525 1526 1527 1528 1529 1530 1530 1531 1532 1532 1532 1532 1533 1533 1533 1533 1533 1533 1534 1534 1534 1534 1534 1534 1534 1533 1533 1533
1491 1493 1496 1499 1502 1505 1507 1509 1511 1513 1515 1517 1519 1520 1522 1523 1525 1526 1527 1528 1528 1529 1530 1530 1530 1530 1531 1531 1531 1531 1531 1532 1532 1532 1532 1532 1533 1533 1533 1533 1532 1531 1531
1489 1491 1494 1496 1499 1502 1505 1507 1509 1511 1513 1515 1517 1519 1520 1522 1523 1524 1525 1526 1527 1528 1528 1528 1528 1528 1529 1529 1529 1529 1529 1530 1530 1530 1530 1530 1530 1531 1531 1531 1530 1529 1529
1487 1490 1492 1495 1497 1500 1502 1504 1507 1509 1511 1513 1515 1517 1519 1520 1521 1522 1523 1524 1525 1526 1526 1526 1526 1526 1526 1527 1527 1527 1527 1527 1527 1527 1527 1527 1528 1528 1528 1528 1528 1528 1527
1486 1488 1490 1493 1495 1498 1500 1502 1505 1507 1509 1511 1513 1515 1516 1518 1519 1520 1521 1522 1522 1523 1524 1524 1524 1524 1524 1524 1524 1524 1524 1524 1525 1524 1525 1524 1525 1525 1525 1525 1525 1525 1525
1484 1486 1489 1491 1494 1496 1498 1500 1503 1505 1507 1509 1511 1512 1514 1515 1516 1517 1518 1519 1520 1520 1520 1521 1521 1521 1521 1521 1521 1521 1521 1521 1521 1522 1522 1522 1522 1522 1522 1522 1522 1522 1522
1483 1486 1488 1490 1492 1494 1496 1498 1501 1502 1504 1506 1508 1510 1511 1513 1514 1515 1515 1516 1517 1518 1517 1518 1518 1518 1518 1517 1518 1518 1518 1518 1519 1519 1519 1519 1519 1519 1519 1519 1519 1519 1518
1482 1485 1487 1489 1490 1493 1494 1496 1499 1500 1502 1504 1505 1507 1508 1510 1511 1512 1513 1514 1514 1514 1514 1515 1514 1514 1515 1515 1514 1515 1515 1515 1515 1515 1515 1515 1516 1516 1516 1516 1515 1515 1515
1481 1483 1485 1487 1489 1492 1493 1495 1496 1498 1500 1501 1503 1504 1505 1507 1508 1509 1510 1511 1511 1511 1511 1511 1511 1512 1512 1512 1512 1512 1512 1512 1512 1512 1512 1512 1512 1512 1512 1512 1512 1511 1511
1480 1482 1484 1486 1488 1490 1491 1493 1495 1496 1498 1499 1500 1502 1503 1504 1505 1506 1507 1507 1508 1508 1508 1508 1508 1509 1509 1509 1509 1509 1509 1508 1508 1508 1508 1509 1509 1509 1509 1509 1508 1508 1508
1479 1481 1483 1485 1486 1488 1489 1491 1493 1495 1496 1497 1498 1499 1500 1501 1502 1503 1504 1504 1504 1505 1505 1505 1505 1506 1505 1505 1505 1506 1505 1505 1505 1505 1505 1505 1505 1505 1505 1505 1505 1505 1504
1478 1479 1480 1483 1485 1486 1488 1489 1491 1492 1494 1495 1496 1497 1498 1499 1500 1500 1501 1501 1501 1502 1502 1502 1502 1502 1502 1502 1502 1502 1502 1502 1501 1501 1501 1502 1502 1502 1502 1501 1501 1501 1501
1476 1478 1479 1481 1483 1485 1486 1488 1489 1490 1491 1492 1493 1494 1495 1496 1497 1497 1498 1498 1499 1499 1499 1499 1499 1499 1499 1499 1499 1499 1498 1498 1498 1498 1498 1498 1498 1498 1498 1498 1498 1497 1497
1475 1477 1478 1480 1481 1483 1484 1486 1487 1488 1489 1490 1491 1491 1492 1493 1494 1494 1494 1495 1496 1496 1496 1496 1496 1496 1496 1496 1496 1495 1495 1495 1494 1494 1494 1494 1494 1494 1494 1495 1494 1494 1494
1474 1476 1477 1478 1479 1481 1483 1484 1485 1486 1487 1487 1488 1489 1489 1490 1491 1491 1492 1492 1493 1493 1494 1493 1493 1493 1493 1493 1493 1492 1492 1491 1491 1491 1490 1491 1491 1491 1491 1491 1491 1490 1490
1473 1475 1476 1477 1478 1480 1482 1483 1484 1484 1485 1485 1486 1486 1487 1488 1488 1489 1489 1490 1490 1490 1491 1491 1490 1490 1490 1490 1490 1489 1489 1488 1487 1487 1487 1487 1487 1487 1487 1487 1487 1487 1487
1472 1473 1474 1475 1477 1478 1480 1481 1481 1482 1482 1483 1483 1483 1484 1485 1485 1486 1487 1487 1487 1487 1487 1487 1487 1487 1487 1487 1486 1486 1486 1485 1485 1484 1484 1484 1484 1484 1484 1484 1483 1483 1483
1470 1471 1472 1473 1474 1476 1477 1478 1479 1479 1479 1480 1480 1480 1481 1481 1482 1483 1483 1483 1484 1484 1484 1484 1484 1483 1483 1483 1483 1483 1483 1482 1482 1481 1481 1481 1480 1480 1480 1480 1480 1480 1480
1469 1470 1471 1471 1472 1473 1474 1476 1476 1477 1477 1476 1476 1477 1477 1478 1479 1480 1480 1479 1480 1480 1481 1480 1480 1480 1480 1480 1480 1479 1479 1479 1478 1478 1477 1477 1477 1477 1477 1477 1476 1476 1476
1467 1468 1469 1469 1470 1471 1472 1473 1474 1474 1473 1473 1473 1473 1474 1475 1476 1477 1477 1477 1477 1477 1477 1477 1477 1476 1476 1476 1476 1476 1475 1475 1475 1475 1474 1473 1473 1473 1473 1473 1473 1473 1473
1465 1466 1466 1467 1468 1468 1469 1470 1470 1470 1470 1470 1470 1470 1471 1471 1472 1472 1473 1473 1474 1474 1474 1473 1473 1473 1473 1472 1472 1472 1472 1471 1471 1471 1470 1469 1469 1469 1469 1469 1469 1469 1469